Find Local Weather

World > North America > United States > Arizona

Cave Creek, Arizona Regional Weather

Lat: 33.83N, Lon: 111.97W
Wx Zone: AZZ543
Feedback
Expires:201806180400;;706713
ASUS45 KPSR 180310
RWRAZ 

ARIZONA HOURLY REGIONAL WEATHER ROUNDUP
NATIONAL WEATHER SERVICE PHOENIX AZ
800 PM MST SUN JUN 17 2018

NOTE: FAIR INDICATES FEW OR NO CLOUDS BELOW 12,000 FEET WITH NO
SIGNIFICANT WEATHER AND/OR OBSTRUCTIONS TO VISIBILITY.


AZZ540-542>544-546-548-180400-
GREATER PHOENIX AREA
  
CITY           SKY/WX    TMP DP  RH WIND       PRES   REMARKS
PHOENIX        CLEAR     93  23   8 W20       29.74R                  
BUCKEYE        CLEAR     84  36  17 SW10      29.77R                  
DEER VALLEY    CLEAR     89  23   9 SW17      29.77R                  
SCOTTSDALE     CLEAR     90  29  11 W14       29.78R                  
MESA-FALCON    CLEAR     91  36  14 SW14      29.77R                  
MESA-GATEWAY   CLEAR     91  34  13 SW16      29.78R                  
CHANDLER       CLEAR     95  30  10 SW17      29.76R                  
$$


SKY/WX - Weather  TMP - Temperature  DP - Dewpoint  RH - Relative Humidity
WIND - Wind Direction/Speed PRES - Barometric Pressure